Regional Weather Roundup
Issued by NWS

Home | Current Version | Previous Version | Text Only | Print | Product List | Glossary On
Versions: 1 2 3 4 5 6 7 8 9 10 11 12 13 14 15 16 17 18 19 20 21 22 23 24 25 26 27 28 29 30 31 32 33 34 35 36 37 38 39 40 41 42 43 44 45 46 47 48 49 50
000
ASUS43 KDMX 290907
RWRIA

WEATHER ROUNDUP FOR IOWA
NATIONAL WEATHER SERVICE DES MOINES IA
300 AM CST MON DEC 29 2014

NOTE: "FAIR" INDICATES FEW OR NO CLOUDS BELOW 12,000 FEET WITH NO
SIGNIFICANT WEATHER AND/OR OBSTRUCTIONS TO VISIBILITY.

* - THESE STATIONS ARE NOT NWS STATIONS...THUS NOT UNDER NWS
QUALITY CONTROL.  THEY ALSO DO NOT REPORT WEATHER SUCH
AS PRECIPITATION OR FOG.

IAZ001>003-012>014-020>022-031>034-043>046-291000-
   NORTHWEST IOWA

CITY           SKY/WX    TMP DP  RH WIND       PRES   REMARKS
CARROLL *      CLOUDY    19  16  86 NE9       30.28R WCI   9
CHEROKEE *     MOCLDY    18  16  93 NE8       30.31R WCI   7
DENISON *      CLOUDY    19  18  93 NE6G13    30.25S WCI  11
LE MARS *      CLOUDY    19  18  93 NE9       30.33R WCI   9
ORANGE CITY *  LGT SNOW  19  16  86 NE6       30.31R WCI  11
SHELDON *      LGT SNOW  16  12  86 NE14G21   30.31R WCI   1
SIOUX CITY     CLOUDY    21  16  81 NE10      30.31R HAZE    WCI  10
SPENCER        CLOUDY    19  14  81 NE13      30.32R HAZE    WCI   6
STORM LAKE *   MOCLDY    18  16  93 NE15      30.29R FOG     WCI   3
$$

IAZ055>058-069>071-079>083-090>094-291000-
   SOUTHWEST IOWA

CITY           SKY/WX    TMP DP  RH WIND       PRES   REMARKS
ATLANTIC *     CLOUDY    23  21  93 NE8       30.24R WCI  14
AUDUBON *      CLEAR     21  16  79 NE10      30.25R WCI  10
CLARINDA *     CLEAR     25  25 100 N8        30.24R WCI  16
COUNCIL BLFS * MOCLDY    21  21 100 N9        30.23R WCI  11
CRESTON *      CLOUDY    25  25 100 NE10      30.21S FOG     WCI  15
HARLAN  *      CLEAR     19  21 100 NE8       30.28R WCI   9
LAMONI         CLOUDY    28  23  81 CALM      30.21R
RED OAK *      CLOUDY    25  25 100 NE7       30.24R WCI  17
SHENANDOAH *   CLEAR     25  25 100 N8        30.24R WCI  16
$$

IAZ047>049-059>061-072>074-084-291000-
   CENTRAL IOWA

CITY           SKY/WX    TMP DP  RH WIND       PRES   REMARKS
AMES           CLOUDY    23  19  85 NE8       30.28R WCI  14
ANKENY *       CLOUDY    25  23  93 NE9       30.27R WCI  15
CHARITON *     CLOUDY    28  25  86 NE6       30.23S WCI  22
DES MOINES     CLOUDY    28  22  78 NE9       30.26R WCI  19
GRINNELL*      CLOUDY    25  23  93 NE8       30.27R WCI  16
KNOXVILLE *    CLOUDY    28  21  74 NE7       30.24S WCI  21
MARSHALLTOWN   CLOUDY    24  20  84 NE8       30.27R WCI  15
PELLA *        MOCLDY    27  23  86 NE3       30.28R
PERRY *        CLOUDY    25  23  93 NE9       30.27S WCI  15
$$

IAZ004>006-015-016-023>025-035-036-291000-
   NORTH CENTRAL IOWA

CITY           SKY/WX    TMP DP  RH WIND       PRES   REMARKS
ALGONA *       CLOUDY    18  16  93 NE13G18   30.33R FOG     WCI   4
CLARION *      LGT SNOW  19  18  93 NE14      30.31R WCI   6
ESTHERVILLE    LGT SNOW  16  14  92 NE13      30.33R FOG     WCI   2
FORT DODGE *   CLOUDY    19  16  86 NE10      30.31R WCI   8
MASON CITY     CLOUDY    17  14  88 N9        30.34R FOG     WCI   6
FOREST CITY *  LGT SNOW  19  14  79 NE9       30.33R WCI   9
IOWA FALLS *   CLOUDY    21  18  86 NE10      30.30S WCI  10
$$

IAZ007>011-017>019-026>030-037>042-050>054-066-291000-
   NORTHEAST IOWA

CITY           SKY/WX    TMP DP  RH WIND       PRES   REMARKS
CEDAR RAPIDS   CLOUDY    27  21  78 NE8       30.27R WCI  19
CHARLES CITY * FLURRIES  19  16  86 NE13      30.31R WCI   7
CLINTON *      CLOUDY    25  19  80 NE5       30.30S WCI  19
DECORAH *      CLOUDY    19  14  79 NE6       30.30S WCI  11
DUBUQUE        CLOUDY    24  20  84 NE9       30.28R WCI  14
MONTICELLO *   CLOUDY    27  23  86 NE7       30.29R WCI  19
OELWEIN *      CLOUDY    23  18  80 NE9       30.29S WCI  13
WATERLOO       CLOUDY    23  19  85 NE8       30.30R WCI  14
$$

IAZ064-065-067-068-078-291000-
   EAST CENTRAL IOWA

CITY           SKY/WX    TMP DP  RH WIND       PRES   REMARKS
DAVENPORT      CLOUDY    25  18  74 NE5       30.28R WCI  19
IOWA CITY      CLOUDY    28  20  71 NE7       30.29R WCI  21
MT. PLEASANT *   N/A     25  21  86 NE5       30.27R WCI  19
MUSCATINE *    CLOUDY    27  21  80 NE3       30.29S
QUAD CITIES    CLOUDY    25  20  81 CALM      30.28R
$$

IAZ062-063-075>077-085>089-095>099-291000-
   SOUTHEAST IOWA

CITY           SKY/WX    TMP DP  RH WIND       PRES   REMARKS
BURLINGTON     CLOUDY    26  22  84 NE6       30.26S WCI  19
FAIRFIELD *    MOCLDY    27  21  80 NE6       30.27S WCI  20
FORT MADISON * CLOUDY    27  23  86 CALM      30.27R
KEOKUK *       CLOUDY    25  23  93 CALM      30.26R
OSKALOOSA *      N/A     25  21  86 NE5       30.27R WCI  19
CENTERVILLE *  PTCLDY    27  23  86 E5        30.24S WCI  21
OTTUMWA        MOCLDY    25  20  81 E6        30.26R WCI  18
WASHINGTON *   CLOUDY    27  25  93 NE6       30.27S WCI  20
$$

ABBREVIATIONS USED IN REMARKS
   TC - TEMPERATURES IN CELSIUS
  WCI - WIND CHILL INDEX
   HX - HEAT INDEX
  VSB - VISIBILITY
$$



USA.gov is the U.S. government's official web portal to all federal, state and local government web resources and services.